FW9153 Weather Reports


time (UTC)temp
C
wind
direction
speed
KPH
gust
KPH
rain 1hr
cm
rain 24hr
cm
rain mn
cm
humidity
%
barometer
mb
20260507154026 17 268 0.0 6.4 0.00 0.00 0.00 85 1016.5
20260507153525 17 270 0.0 6.4 0.00 0.00 0.00 85 1016.5
20260507153023 17 271 0.0 6.4 0.00 0.00 0.00 84 1016.6
20260507152522 17 271 0.0 6.4 0.00 0.00 0.00 83 1016.6
20260507152021 17 271 0.0 3.2 0.00 0.00 0.00 83 1016.5
20260507151534 17 272 0.0 3.2 0.00 0.00 0.00 83 1016.6
20260507151019 17 272 0.0 0.0 0.00 0.00 0.00 84 1016.5
20260507150517 17 272 0.0 0.0 0.00 0.00 0.00 83 1016.5
20260507150015 17 272 0.0 0.0 0.00 0.00 0.00 83 1016.5
20260507145517 17 272 0.0 1.6 0.00 0.00 0.00 83 1016.4
20260507145013 17 272 0.0 1.6 0.00 0.00 0.00 83 1016.4
20260507144511 17 273 0.0 0.0 0.00 0.00 0.00 84 1016.4
20260507144011 16 273 0.0 0.0 0.00 0.00 0.00 85 1016.3
20260507143510 16 273 0.0 0.0 0.00 0.00 0.00 87 1016.2
20260507143007 15 273 0.0 0.0 0.00 0.00 0.00 88 1016.2
20260507142506 15 273 0.0 0.0 0.00 0.00 0.00 88 1016.2
20260507142005 14 273 0.0 0.0 0.00 0.00 0.00 89 1016.2
20260507141502 14 273 0.0 0.0 0.00 0.00 0.00 89 1016.1
20260507141001 13 273 0.0 0.0 0.00 0.00 0.00 89 1016.1
20260507140600 13 273 0.0 0.0 0.00 0.00 0.00 90 1016.1
20260507140059 13 273 0.0 0.0 0.00 0.00 0.00 90 1016.0
20260507135557 13 273 0.0 0.0 0.00 0.00 0.00 90 1016.0
20260507135055 13 273 0.0 0.0 0.00 0.00 0.00 91 1016.0
20260507134557 12 273 0.0 1.6 0.00 0.00 0.00 91 1015.9
20260507134053 12 273 0.0 1.6 0.00 0.00 0.00 91 1015.8
20260507133551 12 272 0.0 0.0 0.00 0.00 0.00 91 1015.7
20260507133053 12 273 0.0 0.0 0.00 0.00 0.00 91 1015.7
20260507132548 12 273 0.0 1.6 0.00 0.00 0.00 91 1015.6
20260507132048 12 272 0.0 1.6 0.00 0.00 0.00 91 1015.6
20260507131546 12 359 0.0 0.0 0.00 0.00 0.00 90 1015.5
20260507131049 12 359 0.0 0.0 0.00 0.00 0.00 90 1015.6
20260507130550 12 272 0.0 0.0 0.00 0.00 0.00 90 1015.6
20260507130045 12 359 0.0 4.8 0.00 0.00 0.00 90 1015.5
20260507125647 12 272 0.0 4.8 0.00 0.00 0.00 90 1015.5
20260507125044 12 272 0.0 3.2 0.00 0.00 0.00 90 1015.5
20260507124544 12 273 0.0 3.2 0.00 0.00 0.00 90 1015.5
20260507124047 12 273 0.0 3.2 0.00 0.00 0.00 90 1015.4
20260507123543 12 273 0.0 3.2 0.00 0.00 0.00 90 1015.5
20260507123043 12 272 0.0 3.2 0.00 0.00 0.00 90 1015.4
20260507122545 12 272 0.0 0.0 0.00 0.00 0.00 90 1015.4
20260507122045 12 273 0.0 0.0 0.00 0.00 0.00 90 1015.4
20260507121541 12 272 0.0 0.0 0.00 0.00 0.00 90 1015.4
20260507121047 12 273 0.0 0.0 0.00 0.00 0.00 90 1015.4
20260507120541 12 359 0.0 0.0 0.00 0.00 0.00 90 1015.5
20260507120043 12 272 0.0 0.0 0.00 0.00 0.00 90 1015.4
20260507115541 12 272 0.0 1.6 0.00 0.00 0.00 90 1015.4
20260507115042 12 273 0.0 1.6 0.00 0.00 0.00 90 1015.4
20260507114541 12 359 0.0 0.0 0.00 0.00 0.00 90 1015.4
20260507114043 12 272 0.0 0.0 0.00 0.00 0.00 89 1015.4
20260507113538 12 273 0.0 0.0 0.00 0.00 0.00 89 1015.4
20260507113038 12 273 0.0 0.0 0.00 0.00 0.00 89 1015.4
20260507112537 12 359 0.0 0.0 0.00 0.00 0.00 89 1015.5
20260507112036 12 272 0.0 0.0 0.00 0.00 0.00 89 1015.5
20260507111537 12 272 0.0 1.6 0.00 0.00 0.00 89 1015.6
20260507111036 12 273 0.0 0.0 0.00 0.00 0.00 89 1015.6
20260507110536 12 272 0.0 0.0 0.00 0.00 0.00 89 1015.6
20260507110047 12 359 0.0 0.0 0.00 0.00 0.00 88 1015.7
20260507105534 12 273 0.0 0.0 0.00 0.00 0.00 89 1015.8
20260507105034 12 359 0.0 0.0 0.00 0.00 0.00 89 1015.8
20260507104534 12 359 0.0 0.0 0.00 0.00 0.00 89 1015.8
20260507104033 13 272 0.0 0.0 0.00 0.00 0.00 89 1015.8
20260507103531 13 273 0.0 0.0 0.00 0.00 0.00 88 1015.8
20260507103032 13 272 0.0 0.0 0.00 0.00 0.00 88 1015.8
20260507102531 13 272 0.0 0.0 0.00 0.00 0.00 88 1015.8
20260507102031 13 273 0.0 0.0 0.00 0.00 0.00 88 1015.9
20260507101540 13 359 0.0 0.0 0.00 0.00 0.00 88 1015.8
20260507101032 13 272 0.0 0.0 0.00 0.00 0.00 88 1015.8
20260507100531 13 359 0.0 0.0 0.00 0.00 0.00 88 1015.8
20260507100035 13 272 0.0 0.0 0.00 0.00 0.00 88 1015.8
20260507095530 13 272 0.0 0.0 0.00 0.00 0.00 88 1015.9
20260507095030 13 273 0.0 0.0 0.00 0.00 0.00 88 1016.0
20260507094529 13 273 0.0 0.0 0.00 0.00 0.00 88 1015.9
20260507094028 13 273 0.0 1.6 0.00 0.00 0.00 87 1016.0
20260507093528 13 273 0.0 1.6 0.00 0.00 0.00 87 1016.0
20260507093027 13 359 0.0 0.0 0.00 0.00 0.00 87 1016.0
20260507092529 13 359 0.0 0.0 0.00 0.00 0.00 87 1016.1
20260507092026 13 272 0.0 0.0 0.00 0.00 0.00 87 1016.0
20260507091525 13 359 0.0 3.2 0.00 0.00 0.00 87 1016.2
20260507091025 13 359 0.0 3.2 0.00 0.00 0.00 87 1016.2
20260507090524 13 359 0.0 0.0 0.00 0.00 0.00 87 1016.3
20260507090034 13 273 0.0 0.0 0.00 0.00 0.00 87 1016.3
20260507085523 13 273 0.0 1.6 0.00 0.00 0.00 87 1016.4
20260507085023 13 272 0.0 4.8 0.00 0.00 0.00 87 1016.5
20260507084532 13 273 0.0 0.0 0.00 0.00 0.00 87 1016.5
20260507084023 13 272 0.0 3.2 0.00 0.00 0.00 86 1016.6
20260507083522 13 273 1.6 3.2 0.00 0.00 0.00 87 1016.6
20260507083020 13 272 0.0 0.0 0.00 0.00 0.00 86 1016.7
20260507082519 13 272 0.0 0.0 0.00 0.00 0.00 86 1016.6
20260507082020 13 359 0.0 0.0 0.00 0.00 0.00 86 1016.7
20260507081519 13 273 0.0 0.0 0.00 0.00 0.00 86 1016.8
20260507081017 13 273 0.0 0.0 0.00 0.00 0.00 86 1016.9
20260507080518 13 272 0.0 0.0 0.00 0.00 0.00 86 1016.8
20260507080016 13 272 0.0 0.0 0.00 0.00 0.00 85 1016.9
20260507075515 13 272 0.0 0.0 0.00 0.00 0.00 85 1016.8
20260507075015 13 272 0.0 0.0 0.00 0.00 0.00 85 1016.8
20260507074524 13 273 0.0 0.0 0.00 0.00 0.00 85 1016.8
20260507074013 13 272 0.0 0.0 0.00 0.00 0.00 85 1016.7
20260507073514 13 273 0.0 0.0 0.00 0.00 0.00 85 1016.7
20260507073013 13 273 0.0 0.0 0.00 0.00 0.00 85 1016.7
20260507072513 13 272 0.0 0.0 0.00 0.00 0.00 85 1016.7
20260507072012 13 272 0.0 0.0 0.00 0.00 0.00 85 1016.8
20260507071511 13 359 0.0 0.0 0.00 0.00 0.00 84 1016.8
20260507071010 14 273 0.0 0.0 0.00 0.00 0.00 85 1016.8
20260507070510 14 272 0.0 0.0 0.00 0.00 0.00 85 1016.8
20260507070013 14 272 0.0 0.0 0.00 0.00 0.00 84 1016.8
20260507065514 14 273 0.0 0.0 0.00 0.00 0.00 84 1016.9
20260507065009 14 273 0.0 0.0 0.00 0.00 0.00 84 1016.8
20260507064509 14 359 0.0 0.0 0.00 0.00 0.00 84 1016.9
20260507064009 14 272 0.0 0.0 0.00 0.00 0.00 84 1016.9
20260507063508 14 272 0.0 0.0 0.00 0.00 0.00 83 1017.0
20260507063010 14 273 0.0 0.0 0.00 0.00 0.00 83 1016.9
20260507062508 15 273 0.0 0.0 0.00 0.00 0.00 82 1016.9
20260507062008 15 273 0.0 0.0 0.00 0.00 0.00 82 1017.0
20260507061508 15 273 0.0 0.0 0.00 0.00 0.00 82 1017.0
20260507061008 15 273 0.0 0.0 0.00 0.00 0.00 82 1017.0
20260507060507 15 273 0.0 0.0 0.00 0.00 0.00 82 1017.0
20260507060011 15 272 0.0 0.0 0.00 0.00 0.00 81 1017.0
20260507055508 15 272 0.0 0.0 0.00 0.00 0.00 81 1017.1
20260507055007 15 272 0.0 0.0 0.00 0.00 0.00 81 1016.9
20260507054507 15 273 0.0 0.0 0.00 0.00 0.00 81 1016.9
20260507054007 15 273 0.0 0.0 0.00 0.00 0.00 81 1016.9
20260507053507 15 272 0.0 0.0 0.00 0.00 0.00 81 1016.9
20260507053007 15 273 0.0 0.0 0.00 0.00 0.00 81 1016.8
20260507052508 15 273 0.0 0.0 0.00 0.00 0.00 81 1016.8
20260507052008 15 273 0.0 0.0 0.00 0.00 0.00 81 1016.8
20260507051507 15 273 0.0 0.0 0.00 0.00 0.00 80 1016.8
20260507051007 15 273 0.0 0.0 0.00 0.00 0.00 80 1016.9
20260507050506 16 273 0.0 0.0 0.00 0.00 0.00 80 1016.8
20260507050006 16 273 0.0 0.0 0.00 0.00 0.00 80 1016.8
20260507045506 16 272 0.0 0.0 0.00 0.00 0.00 80 1016.7
20260507045006 16 273 0.0 0.0 0.00 0.00 0.00 80 1016.8
20260507044506 16 273 0.0 0.0 0.00 0.00 0.00 79 1016.8
20260507044005 16 272 0.0 0.0 0.00 0.00 0.00 78 1016.7
20260507043504 16 273 0.0 0.0 0.00 0.00 0.00 77 1016.7
20260507043005 16 273 0.0 0.0 0.00 0.00 0.00 77 1016.8
20260507042505 17 272 0.0 0.0 0.00 0.00 0.00 76 1016.7
20260507042005 17 273 0.0 3.2 0.00 0.00 0.00 76 1016.7
20260507041508 17 272 0.0 3.2 0.00 0.00 0.00 76 1016.7
20260507041008 17 273 0.0 3.2 0.00 0.00 0.00 76 1016.7
20260507040505 17 273 0.0 0.0 0.00 0.00 0.00 76 1016.7
20260507040006 17 273 0.0 0.0 0.00 0.00 0.00 76 1016.6
20260507035504 17 273 0.0 0.0 0.00 0.00 0.00 76 1016.6
20260507035004 17 272 0.0 1.6 0.00 0.00 0.00 76 1016.5
20260507034505 17 273 0.0 9.7 0.00 0.00 0.00 76 1016.5
20260507034004 17 272 1.6 9.7 0.00 0.00 0.00 76 1016.4
20260507033504 17 273 1.6 9.7 0.00 0.00 0.00 76 1016.4
20260507033004 17 274 1.6 6.4 0.00 0.00 0.00 76 1016.4
20260507032504 17 275 1.6 9.7 0.00 0.00 0.00 76 1016.4
20260507032003 17 274 1.6 9.7 0.00 0.00 0.00 76 1016.4
20260507031505 17 273 1.6 9.7 0.00 0.00 0.00 78 1016.3
20260507031003 17 258 0.0 9.7 0.00 0.00 0.00 79 1016.2
20260507030503 17 258 1.6 9.7 0.00 0.00 0.00 80 1016.2
20260507030003 17 250 0.0 8.0 0.00 0.00 0.00 81 1016.1
20260507025502 17 250 3.2 8.0 0.00 0.00 0.00 81 1016.0
20260507025003 17 253 0.0 6.4 0.00 0.00 0.00 82 1016.0
20260507024503 17 253 1.6 8.0 0.00 0.00 0.00 82 1015.9
20260507024003 17 253 0.0 11.3 0.00 0.00 0.00 82 1015.9
20260507023502 17 269 1.6 12.9 0.00 0.00 0.00 82 1015.9
20260507023002 17 272 3.2 12.9 0.00 0.00 0.00 81 1015.9
20260507022503 17 283 3.2 12.9 0.00 0.00 0.00 81 1015.8
20260507022004 17 252 0.0 12.9 0.00 0.00 0.00 80 1015.8
20260507021501 17 229 0.0 12.9 0.00 0.00 0.00 80 1015.8
20260507021004 17 293 4.8 12.9 0.00 0.00 0.00 79 1015.7
20260507020502 18 296 0.0 9.7 0.00 0.00 0.00 79 1015.6
20260507020001 18 277 1.6 17.7 0.00 0.00 0.00 79 1015.7
20260507015501 18 231 6.4 17.7 0.00 0.00 0.00 79 1015.6
20260507015002 18 276 3.2 12.9 0.00 0.00 0.00 79 1015.6
20260507014607 18 239 6.4 14.5 0.00 0.00 0.00 79 1015.6
20260507014101 18 272 3.2 14.5 0.00 0.00 0.00 80 1015.6
20260507013602 18 284 1.6 14.5 0.00 0.00 0.00 81 1015.6
20260507013101 18 269 3.2 16.1 0.00 0.00 0.00 81 1015.6
20260507012601 18 305 6.4 16.1 0.00 0.00 0.00 80 1015.5
20260507012059 18 270 4.8 14.5 0.00 0.00 0.00 79 1015.6
20260507011600 18 293 4.8 14.5 0.00 0.00 0.00 79 1015.5
20260507011059 19 278 6.4 14.5 0.00 0.00 0.00 80 1015.5
20260507010559 18 274 4.8 14.5 0.00 0.00 0.00 80 1015.5
20260507010114 18 289 4.8 14.5 0.00 0.00 0.00 80 1015.5
20260507005559 19 295 4.8 16.1 0.00 0.00 0.00 80 1015.6
20260507005100 19 268 6.4 16.1 0.00 0.00 0.00 80 1015.5
20260507004558 19 305 6.4 16.1 0.00 0.00 0.00 80 1015.5
20260507004058 19 284 6.4 16.1 0.00 0.00 0.00 79 1015.5
20260507003559 19 287 6.4 14.5 0.00 0.00 0.00 79 1015.5
20260507003057 20 208 4.8 14.5 0.00 0.00 0.00 79 1015.5
20260507002557 20 239 1.6 14.5 0.00 0.00 0.00 79 1015.5
20260507002059 20 282 0.0 16.1 0.00 0.00 0.00 79 1015.4
20260507001601 20 250 4.8 17.7 0.00 0.00 0.00 79 1015.4
20260507001057 20 297 4.8 17.7 0.00 0.00 0.00 79 1015.4
20260507000559 20 230 4.8 14.5 0.00 0.00 0.00 79 1015.3
20260507000104 20 255 8.0 16.1 0.00 0.00 0.00 77 1015.4
20260506235556 20 273 9.7 17.7 0.00 0.00 0.00 75 1015.3
20260506235058 20 243 4.8 14.5 0.00 0.00 0.00 74 1015.4
20260506234607 20 213 3.2 12.9 0.00 0.00 0.00 74 1015.3
20260506234055 20 193 0.0 16.1 0.00 0.00 0.00 75 1015.3
20260506233555 20 299 6.4 17.7 0.00 0.00 0.00 73 1015.3
20260506233102 20 308 6.4 17.7 0.00 0.00 0.00 71 1015.3
20260506232553 20 300 4.8 14.5 0.00 0.00 0.00 71 1015.3
20260506232053 20 189 4.8 14.5 0.00 0.00 0.00 71 1015.3
20260506231553 20 193 8.0 16.1 0.00 0.00 0.00 70 1015.4
20260506231053 20 241 6.4 16.1 0.00 0.00 0.00 68 1015.4
20260506230551 20 295 4.8 11.3 0.00 0.00 0.00 69 1015.5
20260506230053 20 300 3.2 12.9 0.00 0.00 0.00 72 1015.5
20260506225551 19 239 3.2 14.5 0.00 0.00 0.00 75 1015.5
20260506225053 19 291 6.4 12.9 0.00 0.00 0.00 76 1015.6
20260506224552 19 207 4.8 14.5 0.00 0.00 0.00 78 1015.7
20260506224048 19 237 4.8 14.5 0.00 0.00 0.00 79 1015.8
20260506223547 19 303 4.8 17.7 0.00 0.00 0.00 79 1015.9
20260506223046 19 249 6.4 17.7 0.00 0.00 0.00 80 1015.9
20260506222546 18 290 9.7 17.7 0.00 0.00 0.00 79 1016.0
20260506222045 19 276 8.0 17.7 0.00 0.00 0.00 78 1016.1
20260506221548 19 284 6.4 17.7 0.00 0.00 0.00 79 1016.0
20260506221044 19 206 8.0 17.7 0.00 0.00 0.00 78 1016.1
20260506220544 20 203 4.8 16.1 0.00 0.00 0.00 78 1016.2
20260506220050 20 228 3.2 11.3 0.00 0.00 0.00 79 1016.3
20260506215543 20 269 4.8 14.5 0.00 0.00 0.00 78 1016.3
20260506215047 19 286 3.2 14.5 0.00 0.00 0.00 79 1016.3
20260506214543 19 205 4.8 12.9 0.00 0.00 0.00 78 1016.4
20260506214044 19 276 1.6 14.5 0.00 0.00 0.00 78 1016.5
20260506213543 19 208 6.4 12.9 0.00 0.00 0.00 77 1016.5
20260506213040 19 295 4.8 14.5 0.00 0.00 0.00 78 1016.5
20260506212540 19 314 4.8 16.1 0.00 0.00 0.00 79 1016.7
20260506212040 19 292 4.8 16.1 0.00 0.00 0.00 78 1016.7
20260506211548 19 220 6.4 14.5 0.00 0.00 0.00 78 1016.7
20260506211040 19 228 6.4 14.5 0.00 0.00 0.00 78 1016.8
20260506210539 19 294 3.2 16.1 0.00 0.00 0.00 77 1016.8
20260506210040 19 183 6.4 16.1 0.00 0.00 0.00 76 1016.8
20260506205539 19 272 6.4 14.5 0.00 0.00 0.00 77 1016.9
20260506205104 19 174 3.2 14.5 0.00 0.00 0.00 76 1016.9
20260506204539 19 158 3.2 19.3 0.00 0.00 0.00 77 1017.0
20260506204039 19 210 6.4 19.3 0.00 0.00 0.00 77 1016.9
20260506203538 19 268 6.4 16.1 0.00 0.00 0.00 76 1016.9
20260506203502 19 227 6.4 16.1 0.00 0.00 0.00 76 1016.9
20260506203037 19 274 4.8 16.1 0.00 0.00 0.00 77 1016.9
20260506202538 19 207 4.8 16.1 0.00 0.00 0.00 76 1017.1
20260506202038 19 193 4.8 16.1 0.00 0.00 0.00 76 1017.1
20260506201537 19 239 4.8 19.3 0.00 0.00 0.00 75 1017.1
20260506201036 19 283 4.8 19.3 0.00 0.00 0.00 76 1017.1
20260506200536 19 208 3.2 12.9 0.00 0.00 0.00 76 1017.2
20260506200036 18 310 6.4 19.3 0.00 0.00 0.00 77 1017.2
20260506195536 18 309 3.2 19.3 0.00 0.00 0.00 78 1017.4
20260506195036 18 294 3.2 12.9 0.00 0.00 0.00 79 1017.4
20260506194538 18 220 3.2 14.5 0.00 0.00 0.00 79 1017.4
20260506194035 18 202 8.0 14.5 0.00 0.00 0.00 77 1017.5
20260506193533 19 233 4.8 14.5 0.00 0.00 0.00 78 1017.6
20260506193034 18 318 3.2 12.9 0.00 0.00 0.00 79 1017.6
20260506192532 18 197 3.2 12.9 0.00 0.00 0.00 80 1017.6
20260506192032 18 181 4.8 12.9 0.00 0.00 0.00 80 1017.7
20260506191534 18 195 3.2 12.9 0.00 0.00 0.00 80 1017.8
20260506191031 18 195 6.4 12.9 0.00 0.00 0.00 79 1017.8
20260506190530 18 208 1.6 14.5 0.00 0.00 0.00 80 1017.8
20260506190029 18 247 0.0 14.5 0.00 0.00 0.00 80 1017.8
20260506185528 18 188 4.8 9.7 0.00 0.00 0.00 79 1017.9
20260506185027 18 280 3.2 12.9 0.00 0.00 0.00 78 1018.0
20260506184527 18 275 3.2 12.9 0.00 0.00 0.00 79 1018.0
20260506184029 18 253 4.8 11.3 0.00 0.00 0.00 79 1018.0
20260506183524 18 253 3.2 11.3 0.00 0.00 0.00 79 1018.1
20260506183023 18 242 0.0 11.3 0.00 0.00 0.00 78 1018.1
20260506182521 18 235 1.6 12.9 0.00 0.00 0.00 78 1018.1
20260506182024 18 230 0.0 11.3 0.00 0.00 0.00 78 1018.2
20260506181521 18 227 1.6 11.3 0.00 0.00 0.00 77 1018.1
20260506181020 19 206 4.8 9.7 0.00 0.00 0.00 75 1018.2
20260506180521 19 245 3.2 8.0 0.00 0.00 0.00 75 1018.2
20260506180018 19 174 0.0 11.3 0.00 0.00 0.00 75 1018.1
20260506175516 20 211 0.0 11.3 0.00 0.00 0.00 74 1018.1
20260506175015 20 156 3.2 8.0 0.00 0.00 0.00 74 1018.1
20260506174514 20 143 0.0 8.0 0.00 0.00 0.00 75 1018.1
20260506174014 20 143 3.2 8.0 0.00 0.00 0.00 74 1018.1
20260506173513 20 137 0.0 9.7 0.00 0.00 0.00 74 1018.1
20260506173011 20 152 0.0 8.0 0.00 0.00 0.00 74 1018.1
20260506172510 20 136 1.6 6.4 0.00 0.00 0.00 73 1018.1
20260506172008 20 137 0.0 6.4 0.00 0.00 0.00 74 1018.1
20260506171509 20 136 0.0 4.8 0.00 0.00 0.00 75 1018.2
20260506171007 19 136 0.0 4.8 0.00 0.00 0.00 75 1018.1
20260506170507 19 136 0.0 6.4 0.00 0.00 0.00 75 1018.2
20260506170003 19 125 0.0 6.4 0.00 0.00 0.00 76 1018.2
20260506165502 18 158 0.0 11.3 0.00 0.00 0.00 77 1018.2
20260506165001 18 166 0.0 11.3 0.00 0.00 0.00 75 1018.2
20260506164600 18 137 0.0 4.8 0.00 0.00 0.00 76 1018.2
20260506164058 18 188 0.0 6.4 0.00 0.00 0.00 77 1018.3
20260506163557 18 194 1.6 6.4 0.00 0.00 0.00 77 1018.3
20260506163056 18 91 0.0 6.4 0.00 0.00 0.00 76 1018.3
20260506162554 18 66 0.0 4.8 0.00 0.00 0.00 76 1018.3
20260506162056 18 62 0.0 4.8 0.00 0.00 0.00 76 1018.3
20260506161603 18 61 0.0 4.8 0.00 0.00 0.00 76 1018.2
20260506161054 18 61 0.0 0.0 0.00 0.00 0.00 75 1018.2
20260506160550 19 52 0.0 6.4 0.00 0.00 0.00 75 1018.2
20260506160050 19 52 1.6 6.4 0.00 0.00 0.00 74 1018.2
20260506155548 18 52 0.0 3.2 0.00 0.00 0.00 75 1018.2
20260506155048 18 52 0.0 8.0 0.00 0.00 0.00 76 1018.2
20260506154546 18 52 0.0 8.0 0.00 0.00 0.00 75 1018.1